Terug naar catalogus

CZ-4 DEB

ActiefSSO
NORAD 26313·DEBRIS·🇨🇳 China

Gelanceerd Oct 14, 1999 vanaf Taiyuan Satellite Launch Center

Loading…

Volgende Passages (komende 24 uur)

TLE

VersSource: Space-Track

Epoch: Sep 14, 2026, 04:23 UTC

1 26313U 99057GW  26257.18313209  .00001434  00000-0  30996-3 0  9996
2 26313  98.4391 325.5211 0071219 206.4605 177.5349 14.58350329394993

Volg CZ-4 DEB in realtime met AllMySat

Download on the App Store